• en Suisse
  • Liste des pays
  • À 7 jours
  • Température de l'eau
  • Carte satellitaire
  • Carte météo
  • Widgets météo
  • user-avatar
    Se connecter

    Météo par heure à Sad

    Ce jour, 26 Avril, Jeudi

    Heure Température Précipitation Vent Pression Humidité
    00:00 +15°C° 0 mm 4 m/s 748 mmHg 61%
    01:00 +15°C° 0 mm 4 m/s 748 mmHg 63%
    02:00 +14°C° 0 mm 4 m/s 747 mmHg 70%
    03:00 +14°C° 0 mm 4 m/s 747 mmHg 71%
    04:00 +14°C° 0 mm 4 m/s 747 mmHg 72%
    05:00 +14°C° 0 mm 5 m/s 747 mmHg 74%
    06:00 +16°C° 0 mm 5 m/s 747 mmHg 69%
    07:00 +17°C° 0 mm 6 m/s 747 mmHg 64%
    08:00 +20°C° 0 mm 6 m/s 747 mmHg 58%
    09:00 +22°C° 0 mm 7 m/s 747 mmHg 55%
    10:00 +23°C° 0 mm 7 m/s 747 mmHg 51%
    11:00 +26°C° 0 mm 7 m/s 747 mmHg 48%
    12:00 +26°C° 0,1 mm 7 m/s 747 mmHg 46%
    13:00 +27°C° 0,1 mm 7 m/s 747 mmHg 45%
    14:00 +28°C° 0 mm 6 m/s 746 mmHg 43%
    15:00 +27°C° 0 mm 5 m/s 746 mmHg 46%
    16:00 +26°C° 0 mm 4 m/s 747 mmHg 49%
    17:00 +26°C° 0 mm 3 m/s 747 mmHg 52%
    18:00 +24°C° 0,2 mm 3 m/s 747 mmHg 57%
    19:00 +23°C° 0,2 mm 2 m/s 747 mmHg 61%
    20:00 +20°C° 0,2 mm 2 m/s 747 mmHg 65%
    21:00 +19°C° 0,2 mm 2 m/s 748 mmHg 68%
    22:00 +19°C° 0,2 mm 2 m/s 748 mmHg 71%
    23:00 +19°C° 0,2 mm 1 m/s 748 mmHg 73%

    Demain, 27 Avril, Vendredi

    Heure Température Précipitation Vent Pression Humidité
    00:00 +17°C° 0,2 mm 2 m/s 748 mmHg 76%
    01:00 +17°C° 0,2 mm 2 m/s 748 mmHg 78%
    02:00 +16°C° 0,2 mm 2 m/s 747 mmHg 81%
    03:00 +16°C° 0,1 mm 2 m/s 747 mmHg 82%
    04:00 +14°C° 0,1 mm 3 m/s 747 mmHg 82%
    05:00 +14°C° 0,1 mm 3 m/s 747 mmHg 83%
    06:00 +16°C° 0 mm 3 m/s 747 mmHg 77%
    07:00 +18°C° 0 mm 3 m/s 748 mmHg 71%
    08:00 +19°C° 0 mm 4 m/s 748 mmHg 65%
    09:00 +20°C° 0 mm 4 m/s 748 mmHg 61%
    10:00 +21°C° 0 mm 4 m/s 748 mmHg 56%
    11:00 +23°C° 0 mm 4 m/s 748 mmHg 52%
    12:00 +22°C° 0,3 mm 5 m/s 748 mmHg 56%
    13:00 +21°C° 0,3 mm 5 m/s 748 mmHg 59%
    14:00 +20°C° 0,3 mm 6 m/s 748 mmHg 63%
    15:00 +17°C° 0,9 mm 6 m/s 748 mmHg 69%
    16:00 +16°C° 0,9 mm 6 m/s 748 mmHg 75%
    17:00 +14°C° 0,9 mm 5 m/s 748 mmHg 81%
    18:00 +13°C° 0,2 mm 5 m/s 749 mmHg 82%
    19:00 +12°C° 0,2 mm 4 m/s 750 mmHg 83%
    20:00 +11°C° 0,2 mm 4 m/s 750 mmHg 84%
    21:00 +11°C° 0 mm 3 m/s 751 mmHg 86%
    22:00 +10°C° 0 mm 3 m/s 751 mmHg 87%
    23:00 +10°C° 0 mm 2 m/s 751 mmHg 89%

    Après-demain, 28 Avril, Samedi

    Heure Température Précipitation Vent Pression Humidité
    00:00 +10°C° 0 mm 2 m/s 752 mmHg 90%
    01:00 +9°C° 0 mm 2 m/s 752 mmHg 90%
    02:00 +9°C° 0 mm 2 m/s 752 mmHg 91%
    03:00 +9°C° 0 mm 2 m/s 753 mmHg 91%
    04:00 +9°C° 0 mm 2 m/s 753 mmHg 91%
    05:00 +9°C° 0 mm 3 m/s 753 mmHg 92%
    06:00 +10°C° 0 mm 3 m/s 754 mmHg 83%
    07:00 +12°C° 0 mm 3 m/s 754 mmHg 75%
    08:00 +14°C° 0 mm 4 m/s 754 mmHg 67%
    09:00 +16°C° 0 mm 3 m/s 755 mmHg 59%
    10:00 +17°C° 0 mm 3 m/s 755 mmHg 51%
    11:00 +19°C° 0 mm 3 m/s 755 mmHg 44%
    12:00 +19°C° 0 mm 3 m/s 755 mmHg 41%
    13:00 +20°C° 0 mm 3 m/s 755 mmHg 38%
    14:00 +20°C° 0 mm 3 m/s 755 mmHg 36%
    15:00 +20°C° 0 mm 3 m/s 755 mmHg 37%
    16:00 +20°C° 0 mm 2 m/s 755 mmHg 38%
    17:00 +20°C° 0 mm 2 m/s 755 mmHg 39%
    18:00 +18°C° 0 mm 2 m/s 755 mmHg 43%
    19:00 +16°C° 0 mm 2 m/s 755 mmHg 48%
    20:00 +15°C° 0 mm 2 m/s 756 mmHg 52%
    21:00 +14°C° 0 mm 1 m/s 756 mmHg 54%
    22:00 +14°C° 0 mm 1 m/s 756 mmHg 56%
    23:00 +13°C° 0 mm 1 m/s 756 mmHg 58%

    29 Avril, Dimanche

    Heure Température Précipitation Vent Pression Humidité
    00:00 +13°C° 0 mm 1 m/s 757 mmHg 59%
    01:00 +12°C° 0 mm 1 m/s 757 mmHg 60%
    02:00 +12°C° 0 mm 1 m/s 757 mmHg 62%
    03:00 +12°C° 0 mm 2 m/s 757 mmHg 63%
    04:00 +12°C° 0 mm 2 m/s 757 mmHg 65%
    05:00 +10°C° 0 mm 2 m/s 757 mmHg 67%
    06:00 +13°C° 0 mm 2 m/s 757 mmHg 61%
    07:00 +15°C° 0 mm 2 m/s 757 mmHg 56%
    08:00 +17°C° 0 mm 2 m/s 758 mmHg 50%
    09:00 +19°C° 0 mm 2 m/s 757 mmHg 46%
    10:00 +20°C° 0 mm 2 m/s 757 mmHg 41%
    11:00 +21°C° 0 mm 2 m/s 757 mmHg 37%
    12:00 +23°C° 0 mm 2 m/s 757 mmHg 36%
    13:00 +23°C° 0 mm 2 m/s 757 mmHg 34%
    14:00 +24°C° 0 mm 2 m/s 756 mmHg 33%
    15:00 +24°C° 0 mm 2 m/s 756 mmHg 35%
    16:00 +24°C° 0 mm 2 m/s 756 mmHg 36%
    17:00 +24°C° 0 mm 2 m/s 756 mmHg 37%
    18:00 +21°C° 0 mm 2 m/s 756 mmHg 41%
    19:00 +19°C° 0 mm 2 m/s 756 mmHg 45%
    20:00 +17°C° 0 mm 2 m/s 756 mmHg 49%
    21:00 +17°C° 0 mm 2 m/s 756 mmHg 52%
    22:00 +16°C° 0 mm 2 m/s 756 mmHg 54%
    23:00 +14°C° 0 mm 3 m/s 756 mmHg 56%

    30 Avril, Lundi

    Heure Température Précipitation Vent Pression Humidité
    00:00 +15°C° 0 mm 2 m/s 756 mmHg 59%
    01:00 +14°C° 0 mm 2 m/s 755 mmHg 61%
    02:00 +14°C° 0 mm 2 m/s 755 mmHg 64%
    03:00 +13°C° 0 mm 2 m/s 755 mmHg 65%
    04:00 +13°C° 0 mm 2 m/s 755 mmHg 67%
    05:00 +13°C° 0 mm 2 m/s 755 mmHg 68%
    06:00 +15°C° 0 mm 2 m/s 755 mmHg 62%
    07:00 +17°C° 0 mm 3 m/s 755 mmHg 55%
    08:00 +19°C° 0 mm 3 m/s 755 mmHg 49%
    09:00 +20°C° 0 mm 3 m/s 755 mmHg 45%
    10:00 +22°C° 0 mm 4 m/s 755 mmHg 41%
    11:00 +23°C° 0 mm 4 m/s 755 mmHg 37%
    12:00 +25°C° 0 mm 4 m/s 755 mmHg 36%
    13:00 +25°C° 0 mm 4 m/s 754 mmHg 35%
    14:00 +26°C° 0 mm 4 m/s 754 mmHg 34%
    15:00 +25°C° 0 mm 4 m/s 754 mmHg 36%
    16:00 +25°C° 0 mm 3 m/s 753 mmHg 39%
    17:00 +25°C° 0 mm 3 m/s 753 mmHg 41%
    18:00 +22°C° 0 mm 3 m/s 753 mmHg 45%
    19:00 +20°C° 0 mm 3 m/s 753 mmHg 49%
    20:00 +18°C° 0 mm 3 m/s 753 mmHg 53%
    21:00 +17°C° 0 mm 3 m/s 753 mmHg 55%
    22:00 +17°C° 0 mm 2 m/s 753 mmHg 57%
    23:00 +16°C° 0 mm 2 m/s 753 mmHg 59%

    1 Mai, Mardi

    Heure Température Précipitation Vent Pression Humidité
    00:00 +15°C° 0 mm 2 m/s 753 mmHg 61%
    01:00 +15°C° 0 mm 2 m/s 753 mmHg 63%
    02:00 +14°C° 0 mm 2 m/s 753 mmHg 64%
    03:00 +14°C° 0 mm 2 m/s 753 mmHg 66%
    04:00 +13°C° 0 mm 3 m/s 753 mmHg 68%
    05:00 +12°C° 0 mm 3 m/s 753 mmHg 70%
    06:00 +16°C° 0 mm 3 m/s 753 mmHg 63%
    07:00 +18°C° 0 mm 4 m/s 753 mmHg 56%
    08:00 +20°C° 0 mm 4 m/s 753 mmHg 50%
    09:00 +21°C° 0 mm 4 m/s 753 mmHg 44%
    10:00 +23°C° 0 mm 5 m/s 753 mmHg 38%
    11:00 +25°C° 0 mm 5 m/s 753 mmHg 33%
    12:00 +26°C° 0 mm 5 m/s 753 mmHg 31%
    13:00 +27°C° 0 mm 5 m/s 753 mmHg 29%
    14:00 +27°C° 0 mm 5 m/s 752 mmHg 28%
    15:00 +27°C° 0 mm 5 m/s 752 mmHg 31%
    16:00 +26°C° 0 mm 4 m/s 752 mmHg 34%
    17:00 +26°C° 0 mm 3 m/s 752 mmHg 38%
    18:00 +24°C° 0 mm 3 m/s 752 mmHg 42%
    19:00 +21°C° 0 mm 3 m/s 752 mmHg 46%
    20:00 +18°C° 0 mm 3 m/s 753 mmHg 50%
    21:00 +18°C° 0 mm 3 m/s 752 mmHg 53%
    22:00 +17°C° 0 mm 3 m/s 752 mmHg 56%
    23:00 +16°C° 0 mm 2 m/s 752 mmHg 58%
    Voir plus